Time,TemperatureF,DewpointF,PressureIn,WindDirection,WindDirectionDegrees,WindSpeedMPH,WindSpeedGustMPH,Humidity,HourlyPrecipIn,Conditions,Clouds,dailyrainin,SolarRadiationWatts/m^2,SoftwareType,DateUTC
2013-09-15 00:04:00,54.5,53.0,30.07,SW,222,0.0,3.0,93,0.00,,,0.00,0,weatherlink.com 1.10,2013-09-15 06:04:00,
2013-09-15 00:18:00,54.5,53.0,30.07,East,98,0.0,3.0,93,0.00,,,0.00,0,weatherlink.com 1.10,2013-09-15 06:18:00,
2013-09-15 00:33:00,54.4,52.0,30.07,SE,133,0.0,3.0,93,0.00,,,0.00,0,weatherlink.com 1.10,2013-09-15 06:33:00,
2013-09-15 00:48:00,54.2,53.0,30.07,East,92,0.0,3.0,94,0.05,,,0.06,0,weatherlink.com 1.10,2013-09-15 06:48:00,
2013-09-15 01:03:00,53.9,52.0,30.07,ESE,119,0.0,2.0,94,0.12,,,0.13,0,weatherlink.com 1.10,2013-09-15 07:03:00,
2013-09-15 01:18:00,53.5,52.0,30.08,East,86,0.0,3.0,94,0.19,,,0.20,0,weatherlink.com 1.10,2013-09-15 07:18:00,
2013-09-15 01:33:00,53.2,52.0,30.08,West,262,0.0,3.0,94,0.30,,,0.30,0,weatherlink.com 1.10,2013-09-15 07:33:00,
2013-09-15 01:47:00,52.8,51.0,30.08,WSW,244,0.0,3.0,95,0.27,,,0.32,0,weatherlink.com 1.10,2013-09-15 07:47:00,
2013-09-15 02:02:00,52.6,51.0,30.08,SW,234,1.0,3.0,95,0.20,,,0.33,0,weatherlink.com 1.10,2013-09-15 08:02:00,
2013-09-15 02:17:00,52.5,51.0,30.08,WSW,245,0.0,4.0,95,0.14,,,0.33,0,weatherlink.com 1.10,2013-09-15 08:17:00,
2013-09-15 02:32:00,52.4,51.0,30.08,WSW,238,0.0,3.0,95,0.03,,,0.33,0,weatherlink.com 1.10,2013-09-15 08:32:00,
2013-09-15 02:46:00,52.4,51.0,30.08,WSW,238,0.0,0.0,95,0.01,,,0.33,0,weatherlink.com 1.10,2013-09-15 08:46:00,
2013-09-15 03:01:00,52.4,51.0,30.07,WSW,238,0.0,0.0,96,0.01,,,0.34,0,weatherlink.com 1.10,2013-09-15 09:01:00,
2013-09-15 03:16:00,52.3,51.0,30.08,SE,131,0.0,3.0,96,0.03,,,0.37,0,weatherlink.com 1.10,2013-09-15 09:16:00,
2013-09-15 03:30:00,52.1,51.0,30.08,East,82,0.0,2.0,95,0.05,,,0.38,0,weatherlink.com 1.10,2013-09-15 09:30:00,
2013-09-15 03:45:00,51.7,50.0,30.08,NE,46,0.0,4.0,95,0.05,,,0.38,0,weatherlink.com 1.10,2013-09-15 09:45:00,
2013-09-15 04:00:00,51.2,50.0,30.08,NNE,17,0.0,5.0,95,0.04,,,0.38,0,weatherlink.com 1.10,2013-09-15 10:00:00,
2013-09-15 04:15:00,50.9,50.0,30.08,SSW,213,0.0,3.0,95,0.03,,,0.39,0,weatherlink.com 1.10,2013-09-15 10:15:00,
2013-09-15 04:29:00,51.0,50.0,30.09,SW,214,0.0,4.0,96,0.01,,,0.39,0,weatherlink.com 1.10,2013-09-15 10:29:00,
2013-09-15 04:44:00,51.0,50.0,30.09,ESE,110,0.0,2.0,96,0.01,,,0.39,0,weatherlink.com 1.10,2013-09-15 10:44:00,
2013-09-15 04:59:00,51.1,50.0,30.08,ESE,110,0.0,1.0,96,0.01,,,0.39,0,weatherlink.com 1.10,2013-09-15 10:59:00,
2013-09-15 05:14:00,51.0,50.0,30.08,SSW,202,0.0,2.0,96,0.00,,,0.39,0,weatherlink.com 1.10,2013-09-15 11:14:00,
2013-09-15 05:28:00,50.9,50.0,30.08,SSW,194,0.0,0.0,96,0.01,,,0.40,0,weatherlink.com 1.10,2013-09-15 11:28:00,
2013-09-15 05:43:00,50.9,50.0,30.08,SSW,194,0.0,0.0,96,0.02,,,0.41,0,weatherlink.com 1.10,2013-09-15 11:43:00,
2013-09-15 05:58:00,50.7,50.0,30.08,South,185,0.0,1.0,96,0.02,,,0.41,0,weatherlink.com 1.10,2013-09-15 11:58:00,
2013-09-15 06:13:00,50.5,49.0,30.09,East,88,0.0,4.0,96,0.02,,,0.41,0,weatherlink.com 1.10,2013-09-15 12:13:00,
2013-09-15 06:27:00,50.4,49.0,30.09,East,93,0.0,1.0,96,0.01,,,0.41,0,weatherlink.com 1.10,2013-09-15 12:27:00,
2013-09-15 06:42:00,50.4,49.0,30.09,ESE,113,0.0,1.0,96,0.00,,,0.41,0,weatherlink.com 1.10,2013-09-15 12:42:00,
2013-09-15 06:57:00,50.3,49.0,30.09,SSW,192,2.0,2.0,96,0.00,,,0.41,0,weatherlink.com 1.10,2013-09-15 12:57:00,
2013-09-15 07:12:00,50.3,49.0,30.09,SSW,193,0.0,2.0,96,0.00,,,0.41,7,weatherlink.com 1.10,2013-09-15 13:12:00,
2013-09-15 07:26:00,50.2,49.0,30.09,SSW,209,0.0,2.0,96,0.00,,,0.41,11,weatherlink.com 1.10,2013-09-15 13:26:00,
2013-09-15 07:41:00,50.3,49.0,30.10,SE,127,0.0,2.0,96,0.00,,,0.41,35,weatherlink.com 1.10,2013-09-15 13:41:00,
2013-09-15 07:56:00,50.4,50.0,30.10,WSW,244,0.0,3.0,97,0.00,,,0.41,67,weatherlink.com 1.10,2013-09-15 13:56:00,
2013-09-15 08:12:00,50.8,50.0,30.09,NNW,348,0.0,3.0,97,0.00,,,0.41,53,weatherlink.com 1.10,2013-09-15 14:12:00,
2013-09-15 08:26:00,50.8,50.0,30.10,East,88,0.0,4.0,97,0.00,,,0.41,49,weatherlink.com 1.10,2013-09-15 14:26:00,
2013-09-15 08:41:00,50.9,50.0,30.10,East,92,0.0,0.0,97,0.00,,,0.41,62,weatherlink.com 1.10,2013-09-15 14:41:00,
2013-09-15 08:55:00,51.2,50.0,30.10,ENE,69,0.0,2.0,97,0.00,,,0.41,72,weatherlink.com 1.10,2013-09-15 14:55:00,
2013-09-15 09:10:00,51.4,51.0,30.10,ENE,69,0.0,3.0,97,0.00,,,0.41,95,weatherlink.com 1.10,2013-09-15 15:10:00,
2013-09-15 09:25:00,51.9,51.0,30.10,ENE,75,1.0,2.0,97,0.00,,,0.41,125,weatherlink.com 1.10,2013-09-15 15:25:00,
2013-09-15 09:40:00,51.9,51.0,30.11,ENE,71,2.0,5.0,97,0.00,,,0.41,127,weatherlink.com 1.10,2013-09-15 15:40:00,
2013-09-15 09:55:00,52.0,51.0,30.11,ENE,77,2.0,5.0,97,0.00,,,0.41,227,weatherlink.com 1.10,2013-09-15 15:55:00,
2013-09-15 10:10:00,51.9,51.0,30.12,ENE,65,3.0,5.0,97,0.00,,,0.41,163,weatherlink.com 1.10,2013-09-15 16:10:00,
2013-09-15 10:24:00,51.5,50.0,30.12,NE,51,0.0,5.0,96,0.00,,,0.41,70,weatherlink.com 1.10,2013-09-15 16:24:00,
2013-09-15 10:39:00,51.3,50.0,30.12,East,96,1.0,3.0,96,0.00,,,0.41,137,weatherlink.com 1.10,2013-09-15 16:39:00,
2013-09-15 10:54:00,51.2,50.0,30.11,ENE,78,3.0,3.0,96,0.00,,,0.41,137,weatherlink.com 1.10,2013-09-15 16:54:00,
2013-09-15 11:09:00,51.5,50.0,30.11,ENE,71,1.0,2.0,96,0.00,,,0.41,102,weatherlink.com 1.10,2013-09-15 17:09:00,
2013-09-15 11:23:00,51.5,50.0,30.12,ENE,71,0.0,2.0,96,0.00,,,0.41,98,weatherlink.com 1.10,2013-09-15 17:23:00,
2013-09-15 11:38:00,51.7,51.0,30.12,ENE,61,0.0,3.0,96,0.00,,,0.41,113,weatherlink.com 1.10,2013-09-15 17:38:00,
2013-09-15 11:52:00,52.0,51.0,30.12,ENE,69,0.0,3.0,97,0.00,,,0.41,127,weatherlink.com 1.10,2013-09-15 17:52:00,
2013-09-15 12:07:00,52.4,52.0,30.12,ENE,61,4.0,6.0,97,0.00,,,0.41,127,weatherlink.com 1.10,2013-09-15 18:07:00,
2013-09-15 12:22:00,52.6,52.0,30.12,East,84,3.0,6.0,97,0.00,,,0.41,125,weatherlink.com 1.10,2013-09-15 18:22:00,
2013-09-15 12:37:00,52.7,52.0,30.12,East,97,1.0,7.0,96,0.00,,,0.41,165,weatherlink.com 1.10,2013-09-15 18:37:00,
2013-09-15 12:51:00,53.2,52.0,30.11,ESE,119,2.0,9.0,97,0.00,,,0.41,195,weatherlink.com 1.10,2013-09-15 18:51:00,
2013-09-15 13:06:00,53.9,53.0,30.11,ENE,64,4.0,7.0,97,0.00,,,0.41,151,weatherlink.com 1.10,2013-09-15 19:06:00,
2013-09-15 13:21:00,54.5,54.0,30.10,East,85,5.0,7.0,97,0.01,,,0.42,155,weatherlink.com 1.10,2013-09-15 19:21:00,
2013-09-15 13:36:00,55.3,54.0,30.10,ESE,118,3.0,10.0,96,0.01,,,0.42,399,weatherlink.com 1.10,2013-09-15 19:36:00,
2013-09-15 13:51:00,56.0,55.0,30.09,East,95,7.0,14.0,95,0.01,,,0.42,381,weatherlink.com 1.10,2013-09-15 19:51:00,
2013-09-15 14:06:00,56.8,55.0,30.09,SE,135,4.0,14.0,94,0.01,,,0.42,336,weatherlink.com 1.10,2013-09-15 20:06:00,
2013-09-15 14:20:00,58.1,56.0,30.08,ESE,108,6.0,15.0,93,0.00,,,0.42,438,weatherlink.com 1.10,2013-09-15 20:20:00,
2013-09-15 14:36:00,59.2,57.0,30.06,East,95,8.0,12.0,91,0.00,,,0.42,656,weatherlink.com 1.10,2013-09-15 20:36:00,
2013-09-15 14:50:00,61.0,57.0,30.05,East,101,12.0,16.0,86,0.00,,,0.42,686,weatherlink.com 1.10,2013-09-15 20:50:00,
2013-09-15 15:05:00,61.7,56.0,30.04,ESE,122,10.0,18.0,83,0.00,,,0.42,566,weatherlink.com 1.10,2013-09-15 21:05:00,
2013-09-15 15:20:00,61.7,56.0,30.03,ESE,106,4.0,17.0,83,0.00,,,0.42,538,weatherlink.com 1.10,2013-09-15 21:20:00,
2013-09-15 15:35:00,61.7,56.0,30.03,SE,138,7.0,16.0,81,0.00,,,0.42,473,weatherlink.com 1.10,2013-09-15 21:35:00,
2013-09-15 15:50:00,60.5,55.0,30.03,ENE,66,9.0,15.0,83,0.00,,,0.42,570,weatherlink.com 1.10,2013-09-15 21:50:00,
2013-09-15 16:05:00,62.6,57.0,30.02,East,87,9.0,13.0,81,0.00,,,0.42,459,weatherlink.com 1.10,2013-09-15 22:05:00,
2013-09-15 16:19:00,63.1,55.0,30.02,ESE,122,9.0,15.0,76,0.00,,,0.42,485,weatherlink.com 1.10,2013-09-15 22:19:00,
2013-09-15 16:34:00,63.6,55.0,30.02,SSE,158,9.0,21.0,74,0.00,,,0.42,485,weatherlink.com 1.10,2013-09-15 22:34:00,
2013-09-15 16:49:00,63.6,55.0,30.01,ESE,110,8.0,14.0,73,0.00,,,0.42,459,weatherlink.com 1.10,2013-09-15 22:49:00,
2013-09-15 17:04:00,63.0,55.0,30.01,ESE,103,9.0,15.0,74,0.00,,,0.42,403,weatherlink.com 1.10,2013-09-15 23:04:00,
2013-09-15 17:19:00,62.6,55.0,30.01,ESE,123,5.0,15.0,75,0.00,,,0.42,330,weatherlink.com 1.10,2013-09-15 23:19:00,
2013-09-15 17:33:00,61.9,55.0,30.01,ESE,103,4.0,13.0,77,0.00,,,0.42,139,weatherlink.com 1.10,2013-09-15 23:33:00,
2013-09-15 17:48:00,60.8,54.0,30.00,East,92,6.0,11.0,78,0.00,,,0.42,86,weatherlink.com 1.10,2013-09-15 23:48:00,
2013-09-15 18:03:00,60.4,54.0,30.00,SE,125,7.0,12.0,80,0.00,,,0.42,197,weatherlink.com 1.10,2013-09-16 00:03:00,
2013-09-15 18:18:00,60.7,54.0,29.99,SE,128,3.0,10.0,78,0.00,,,0.42,98,weatherlink.com 1.10,2013-09-16 00:18:00,
2013-09-15 18:33:00,60.5,53.0,29.99,SSE,155,1.0,8.0,76,0.00,,,0.42,77,weatherlink.com 1.10,2013-09-16 00:33:00,
2013-09-15 18:47:00,60.1,54.0,29.98,ESE,109,0.0,8.0,79,0.00,,,0.42,28,weatherlink.com 1.10,2013-09-16 00:47:00,
2013-09-15 19:02:00,59.6,52.0,29.98,SE,128,1.0,7.0,77,0.00,,,0.42,19,weatherlink.com 1.10,2013-09-16 01:02:00,
2013-09-15 19:17:00,59.4,51.0,29.97,WSW,254,3.0,7.0,74,0.00,,,0.42,11,weatherlink.com 1.10,2013-09-16 01:17:00,
2013-09-15 19:32:00,59.7,50.0,29.97,SSW,196,0.0,7.0,71,0.00,,,0.42,0,weatherlink.com 1.10,2013-09-16 01:32:00,
2013-09-15 19:46:00,60.6,50.0,29.97,SSE,160,0.0,9.0,69,0.00,,,0.42,0,weatherlink.com 1.10,2013-09-16 01:46:00,
2013-09-15 20:01:00,60.7,51.0,29.97,East,85,0.0,4.0,70,0.00,,,0.42,0,weatherlink.com 1.10,2013-09-16 02:01:00,
2013-09-15 20:16:00,59.5,51.0,29.97,SE,133,3.0,7.0,73,0.00,,,0.42,0,weatherlink.com 1.10,2013-09-16 02:16:00,
2013-09-15 20:31:00,59.1,50.0,29.97,South,182,3.0,6.0,73,0.00,,,0.42,0,weatherlink.com 1.10,2013-09-16 02:31:00,
2013-09-15 20:45:00,59.9,50.0,29.98,SW,219,5.0,10.0,71,0.00,,,0.42,0,weatherlink.com 1.10,2013-09-16 02:45:00,
2013-09-15 21:00:00,60.5,51.0,29.98,SSE,158,2.0,10.0,70,0.00,,,0.42,0,weatherlink.com 1.10,2013-09-16 03:00:00,
2013-09-15 21:15:00,60.2,51.0,29.98,South,181,0.0,5.0,71,0.00,,,0.42,0,weatherlink.com 1.10,2013-09-16 03:15:00,
2013-09-15 21:29:00,59.9,50.0,29.99,ESE,119,3.0,8.0,71,0.00,,,0.42,0,weatherlink.com 1.10,2013-09-16 03:29:00,
2013-09-15 21:44:00,59.6,51.0,29.98,SE,134,2.0,8.0,73,0.00,,,0.42,0,weatherlink.com 1.10,2013-09-16 03:44:00,
2013-09-15 21:59:00,59.4,51.0,29.98,SE,140,0.0,7.0,73,0.00,,,0.42,0,weatherlink.com 1.10,2013-09-16 03:59:00,
2013-09-15 22:13:00,59.0,51.0,29.97,SSW,205,0.0,4.0,75,0.00,,,0.42,0,weatherlink.com 1.10,2013-09-16 04:13:00,
2013-09-15 22:28:00,58.2,51.0,29.97,SE,130,3.0,4.0,76,0.00,,,0.42,0,weatherlink.com 1.10,2013-09-16 04:28:00,
2013-09-15 22:43:00,57.8,51.0,29.97,SE,135,0.0,3.0,77,0.00,,,0.42,0,weatherlink.com 1.10,2013-09-16 04:43:00,
2013-09-15 22:58:00,57.6,51.0,29.96,ESE,109,2.0,6.0,78,0.00,,,0.42,0,weatherlink.com 1.10,2013-09-16 04:58:00,
2013-09-15 23:12:00,57.8,51.0,29.96,ESE,116,6.0,9.0,78,0.00,,,0.42,0,weatherlink.com 1.10,2013-09-16 05:12:00,
2013-09-15 23:27:00,57.8,51.0,29.96,ESE,111,0.0,7.0,77,0.00,,,0.42,0,weatherlink.com 1.10,2013-09-16 05:27:00,
2013-09-15 23:42:00,57.9,50.0,29.95,SSE,154,1.0,6.0,76,0.00,,,0.42,0,weatherlink.com 1.10,2013-09-16 05:42:00,
2013-09-15 23:56:00,56.9,49.0,29.95,WSW,239,2.0,3.0,76,0.00,,,0.42,0,weatherlink.com 1.10,2013-09-16 05:56:00,